This is the latest recevied weather packets stored in our database for station/object IZ0VWB-3. If no packets are shown the sender has not sent any weather packets the latest 1 day(s).
| Time | Temp. | Humidity | Pressure | Rain* | Wind** | Luminosity | Snow |
|---|---|---|---|---|---|---|---|
| 1777977210 | 12.78° C | 78% | 1003.1 hPa | 0 mm | 0.45 m/s, 169° | - | - |
| 1777976612 | 12.78° C | 78% | 1003 hPa | 0 mm | 0 m/s | - | - |
| 1777976010 | 12.78° C | 77% | 1002.9 hPa | 0 mm | 0 m/s | - | - |
| 1777975411 | 12.78° C | 77% | 1002.8 hPa | 0 mm | 0.89 m/s, 143° | - | - |
| 1777974651 | 12.78° C | 75% | 1002.9 hPa | 0 mm | 0.45 m/s, 120° | - | - |
| 1777974053 | 12.78° C | 75% | 1002.8 hPa | 0 mm | 0.45 m/s, 130° | - | - |
| 1777973452 | 12.22° C | 75% | 1002.9 hPa | 0 mm | 0.89 m/s, 149° | - | - |
| 1777972853 | 12.22° C | 74% | 1002.7 hPa | 0 mm | 1.79 m/s, 148° | - | - |
| 1777972251 | 12.22° C | 73% | 1002.8 hPa | 0 mm | 1.34 m/s, 137° | - | - |
| 1777971652 | 12.22° C | 73% | 1002.9 hPa | 0 mm | 1.34 m/s, 137° | - | - |
| 1777970608 | 12.22° C | 72% | 1002.9 hPa | 0 mm | 1.34 m/s, 140° | - | - |
| 1777970009 | 12.22° C | 72% | 1002.7 hPa | 0 mm | 1.34 m/s, 142° | - | - |
| 1777969409 | 12.22° C | 71% | 1002.7 hPa | 0 mm | 0.89 m/s, 167° | - | - |
| 1777968809 | 12.22° C | 71% | 1002.7 hPa | 0 mm | 1.79 m/s, 132° | - | - |
| 1777968208 | 12.22° C | 71% | 1002.7 hPa | 0 mm | 0.45 m/s, 135° | - | - |
| 1777967609 | 12.22° C | 71% | 1002.6 hPa | 0 mm | 1.79 m/s, 129° | - | - |
| 1777967009 | 11.67° C | 71% | 1002.6 hPa | 0 mm | 1.34 m/s, 162° | - | - |
| 1777966409 | 11.67° C | 71% | 1002.7 hPa | 0 mm | 0.89 m/s, 147° | - | - |
| 1777965808 | 11.67° C | 72% | 1002.7 hPa | 0 mm | 0.89 m/s, 155° | - | - |
| 1777965207 | 11.67° C | 72% | 1002.8 hPa | 0 mm | 0.89 m/s, 136° | - | - |
| 1777964607 | 11.67° C | 73% | 1002.7 hPa | 0.76 mm | 1.34 m/s, 166° | - | - |
| 1777964008 | 11.67° C | 73% | 1002.6 hPa | 0.76 mm | 0.45 m/s, 152° | - | - |
| 1777963408 | 11.67° C | 73% | 1002.4 hPa | 0.76 mm | 0.89 m/s, 144° | - | - |
| 1777962808 | 11.67° C | 73% | 1002.3 hPa | 0.76 mm | 2.24 m/s, 135° | - | - |
| 1777962207 | 11.67° C | 74% | 1002.3 hPa | 0.76 mm | 1.34 m/s, 146° | - | - |
* Rain latest hour (hover to see other rain measurements)
** Current wind speed in m/s (hover to see current wind gust speed)